Tracking 34717 objects as of 15-Jul-2026
HD Live streaming from Space Station
objects crossing your sky now

SL-12 R/B(2)

Track SL-12 R/B(2) now!


NORAD ID: 19777
Int'l Code: 1988-095F
Perigee: 36,394.8 km
Apogee: 36,527.6 km
Inclination: 12.7 °
Period: 1,470.3 minutes
Semi major axis: 42832 km
RCS: 2.6743 m2 (large)
Launch date: October 20, 1988
Source: Commonwealth of Independent States (former USSR) (CIS)
Launch site: TYURATAM MISSILE AND SPACE COMPLEX (TTMTR)

Note: This is a ROCKET BODY
Your satellite tracking list
Your tracking list is empty




NASA's NSSDC Master Catalog

Two Line Element Set (TLE):
1 19777U 88095F   26195.47529373 -.00000045  00000-0  00000-0 0  9994
2 19777  12.6908 333.5749 0015500 266.3946 118.8288  0.97937029122568
Source of the keplerian elements: AFSPC